TimeMDT,TemperatureF,Dew PointF,Humidity,Sea Level PressureIn,VisibilityMPH,Wind Direction,Wind SpeedMPH,Gust SpeedMPH,PrecipitationIn,Events,Conditions,WindDirDegrees,DateUTC
12:55 AM,50.0,33.4,53,29.67,10.0,NNW,8.1,-,N/A,,Clear,330,2012-10-13 06:55:00
1:55 AM,51.8,34.2,51,29.64,10.0,Calm,Calm,-,N/A,,Overcast,0,2012-10-13 07:55:00
2:55 AM,56.3,34.3,44,29.64,10.0,NNW,10.4,-,N/A,,Overcast,330,2012-10-13 08:55:00
3:55 AM,53.8,35.2,50,29.64,10.0,Calm,Calm,-,N/A,,Overcast,0,2012-10-13 09:55:00
4:55 AM,54.9,34.9,47,29.65,10.0,NNW,5.8,-,N/A,,Overcast,340,2012-10-13 10:55:00
5:55 AM,54.5,35.1,48,29.70,10.0,SE,5.8,-,N/A,,Overcast,130,2012-10-13 11:55:00
6:55 AM,54.5,34.9,48,29.73,10.0,North,4.6,-,N/A,,Mostly Cloudy,10,2012-10-13 12:55:00
7:55 AM,57.4,34.7,43,29.75,10.0,North,15.0,-,N/A,,Partly Cloudy,350,2012-10-13 13:55:00
8:55 AM,59.0,30.4,34,29.77,10.0,NNW,15.0,-,N/A,,Clear,340,2012-10-13 14:55:00
9:55 AM,65.3,30.7,27,29.77,10.0,NNW,23.0,29.9,N/A,,Clear,340,2012-10-13 15:55:00
10:55 AM,67.3,30.9,26,29.78,10.0,North,24.2,29.9,N/A,,Clear,350,2012-10-13 16:55:00
11:55 AM,68.9,31.1,25,29.79,10.0,NNW,25.3,-,N/A,,Clear,340,2012-10-13 17:55:00
12:55 PM,70.5,32.4,24,29.77,10.0,NNW,26.5,35.7,N/A,,Clear,330,2012-10-13 18:55:00
1:55 PM,72.1,32.4,23,29.75,10.0,NNW,23.0,28.8,N/A,,Clear,340,2012-10-13 19:55:00
2:55 PM,72.1,32.4,23,29.76,10.0,NNW,25.3,31.1,N/A,,Clear,340,2012-10-13 20:55:00
3:55 PM,71.4,32.2,24,29.78,10.0,NNW,25.3,32.2,N/A,,Clear,330,2012-10-13 21:55:00
4:55 PM,69.4,31.6,25,29.81,10.0,North,26.5,32.2,N/A,,Scattered Clouds,350,2012-10-13 22:55:00
5:55 PM,65.8,31.5,28,29.86,10.0,NNW,20.7,31.1,N/A,,Mostly Cloudy,340,2012-10-13 23:55:00
6:55 PM,63.7,32.7,31,29.90,10.0,NNW,19.6,-,N/A,,Overcast,340,2012-10-14 00:55:00
7:55 PM,62.4,35.1,36,29.93,10.0,NNW,21.9,26.5,N/A,,Mostly Cloudy,330,2012-10-14 01:55:00
8:55 PM,57.6,40.1,52,29.95,10.0,NW,11.5,-,N/A,,Overcast,320,2012-10-14 02:55:00
9:55 PM,56.1,39.9,55,29.96,10.0,NW,13.8,-,N/A,,Overcast,320,2012-10-14 03:55:00
10:55 PM,57.6,38.1,48,29.96,10.0,NW,11.5,-,N/A,,Overcast,320,2012-10-14 04:55:00
11:55 PM,52.3,36.9,56,29.98,10.0,NW,10.4,-,N/A,,Scattered Clouds,320,2012-10-14 05:55:00